Tracking 28920 objects as of 26-May-2024
HD Live streaming from Space Station
objects crossing your sky now

STARLINK-31512

Track STARLINK-31512 now!
10-day predictions


NORAD ID: 59500
Int'l Code: 2024-071S
Perigee: 449.8 km
Apogee: 452.6 km
Inclination: 43.0 °
Period: 93.5 minutes
Semi major axis: 6822 km
RCS: Unknown
Launch date: April 13, 2024
Source: United States (US)
Launch site: AIR FORCE EASTERN TEST RANGE (AFETR)
Your satellite tracking list
Your tracking list is empty




NASA's NSSDC Master Catalog

Two Line Element Set (TLE):
1 59500U 24071S   24147.27625291  .00004212  00000-0  10801-3 0  9997
2 59500  43.0024 106.9670 0002050 276.8036  83.2588 15.40709697  7933
Source of the keplerian elements: AFSPC